Regional Weather Roundup
Issued by NWS

Home | Current Version | Previous Version | Graphics & Text | Print | Product List | Glossary On
Versions: 1 2 3 4 5 6 7 8 9 10 11 12 13 14 15 16 17 18 19 20 21 22 23 24 25 26 27 28 29 30 31 32 33 34 35 36 37 38 39 40 41 42 43 44 45 46 47 48 49 50
398
ASUS43 KMKX 241421
RWRWI

WISCONSIN REGIONAL WEATHER ROUNDUP
NATIONAL WEATHER SERVICE MILWAUKEE/SULLIVAN WI
900 AM CDT MON JUL 24 2017

NOTE: "FAIR" INDICATES FEW OR NO CLOUDS BELOW 12,000 FEET WITH NO
SIGNIFICANT WEATHER AND/OR OBSTRUCTIONS TO VISIBILITY.

WIZ001-002-006>008-014>016-023>028-241500-
NORTHWEST WISCONSIN

CITY           SKY/WX    TMP DP  RH WIND       PRES   REMARKS
SUPERIOR ARPT  NOT AVBL
ASHLAND        CLOUDY    55  55 100 CALM      30.12R FOG
HAYWARD        SUNNY     61  55  81 CALM      30.11S
SIREN          CLOUDY    57  57  98 CALM      30.11R
CUMBERLAND     CLOUDY    55  55 100 E3        30.11R
RICE LAKE      PTSUNNY   57  55  90 E7        30.13R
CHETEK         CLOUDY    57  55  93 SE8       30.11S
LADYSMITH      CLOUDY    55  53  93 SE7       30.15R
EAU CLAIRE     CLOUDY    61  55  81 E9        30.09S
MENOMONIE      PTSUNNY   63  58  83 E6        30.10S
NEW RICHMOND   SUNNY     65  58  80 SE8       30.10R
OSCEOLA        SUNNY     64  57  77 E5        30.13R
$$

WIZ003>005-009-010-017-018-241500-
NORTH CENTRAL WISCONSIN

CITY           SKY/WX    TMP DP  RH WIND       PRES   REMARKS
MANITOWISH WTR SUNNY     63  55  74 S7        30.13R
ARBOR VITAE    SUNNY     62  55  78 S3        30.12S
WOODRUFF       SUNNY     62  55  78 S3        30.12S
RHINELANDER    SUNNY     56  53  90 CALM      30.13S
EAGLE RIVER    SUNNY     56  56 100 CALM      30.13R
LAND O LAKES   SUNNY     64  51  64 SE3       30.14S
PHILLIPS       MOSUNNY   59  55  87 CALM      30.12S
TOMAHAWK         N/A     57  52  81 CALM      30.13S
MEDFORD        CLOUDY    57  53  85 E6        30.12S
MERRILL        NOT AVBL
$$

WIZ029-030-035-036-043>047-241500-
CENTRAL WISCONSIN

CITY           SKY/WX    TMP DP  RH WIND       PRES   REMARKS
WAUSAU         MOSUNNY   61  53  75 MISG      30.10S
MOSINEE        PTSUNNY   61  55  82 E5        30.12R
MARSHFIELD     PTSUNNY   63  54  72 E7        30.09S
STEVENS POINT  MOSUNNY   62  55  75 E3        30.10S
WAUPACA        CLOUDY    67  56  68 N5        30.10R
WAUTOMA        CLOUDY    63  57  81 NE8       30.09R
WISC RAPIDS    CLOUDY    64  55  72 NE7       30.10R
CAMP DOUGLAS   CLOUDY    63  57  82 E5        30.09R
$$

WIZ011>013-019>022-031-037>040-048>050-241500-
NORTHEAST WISCONSIN

CITY           SKY/WX    TMP DP  RH WIND       PRES   REMARKS
ANTIGO         SUNNY     59  53  81 CALM      30.12S
SHAWANO        MOSUNNY   66  55  68 N6        30.10S
OCONTO         SUNNY     63  54  71 N5        30.09R
STURGEON BAY     N/A     64  56  75 MISG      30.08S
GREEN BAY      PTSUNNY   64  58  80 N9        30.09R
MANITOWOC      CLOUDY    64  55  72 N9G16     30.07R
APPLETON       PTSUNNY   63  54  72 N10       30.07R
CLINTONVILLE   MOSUNNY  N/A N/A N/A E5        30.09S
OSHKOSH        MOSUNNY   65  55  70 NE12      30.07R
$$

WIZ032>034-041-042-053>061-241500-
SOUTHWEST WISCONSIN

CITY           SKY/WX    TMP DP  RH WIND       PRES   REMARKS
LA CROSSE      CLOUDY    64  56  75 NE7       30.09R
SPARTA         CLOUDY    63  55  76 E8        30.09F
VIROQUA        CLOUDY    60  57  90 CALM      30.10R
BOSCOBEL       MOSUNNY   68  57  68 E5        30.08R
PRAIRIE DU CHI MOSUNNY   64  56  74 E7        30.06S
PLATTEVILLE    MOSUNNY   65  61  86 NE8       30.06R
$$

WIZ056-057-062-063-064-067-068-241500-
SOUTH CENTRAL WISCONSIN

CITY           SKY/WX    TMP DP  RH WIND       PRES   REMARKS
REEDSBURG      CLOUDY    64  58  82 NE8       30.08S
BARABOO/DELLS  CLOUDY    63  56  76 NE8       30.08R
LONE ROCK      PTSUNNY   67  57  70 NE10      30.07R
MINERAL POINT  PTSUNNY   66  61  82 NE8       30.07R
MADISON        CLOUDY    64  57  78 NE12      30.06R
MIDDLETON      CLOUDY    66  57  73 E7        30.07S
WATERTOWN      CLOUDY    64  59  81 NE10      30.05R
MONROE         MOSUNNY   64  57  77 NE13      30.05R
JANESVILLE     PTSUNNY   68  59  73 NE12G17   30.04R
$$

WIZ051-052-058>065-066-070>072-241500-
SOUTHEAST WISCONSIN

CITY           SKY/WX    TMP DP  RH WIND       PRES   REMARKS
MILWAUKEE      PTSUNNY   68  56  65 N14G21    30.03R
WAUKESHA       CLOUDY    63  55  77 N10       30.05R
MILWAUKEE/TIMM CLOUDY    64  55  72 N12       30.05R
RACINE         CLOUDY    67  59  75 NE17      30.05R
KENOSHA        CLOUDY    67  57  70 NE14      30.03R
FOND DU LAC    MOSUNNY   67  54  63 NE13      30.07R
SHEBOYGAN      PTSUNNY   66  59  78 NE12      30.06R
WEST BEND      CLOUDY    63  55  77 NE12G17   30.05S
JUNEAU         CLOUDY    63  55  76 NE8       30.07S
$$

LSZ147-162-241500-
LAKE SUPERIOR

STATION/POSITION TIME  TEMP    WIND        PRES    WAVE
                       AIR SEA DIR/SP/G            HT/PER
                 (UTC) (F)     (DEG/KT/KT) (MB)    (FT/S)
W MID LAKE BUOY  1350   49 48  240/  6/  8 1020.1R   0
DEVILS ISLAND    1400   55     200/  2/  3 1020.0R
PORT WING        1300   54     120/  3/  9 1019.6
SAXON HARBOR     1340   57     310/  3/  5 1019.3R
$$

LMZ867-665-643>646-241500-
LAKE MICHIGAN

STATION/POSITION TIME  TEMP    WIND        PRES    WAVE
                       AIR SEA DIR/SP/G            HT/PER
                 (UTC) (F)     (DEG/KT/KT) (MB)    (FT/S)
CHAMBERS ISLAND  1340   63     360/ 13/ 15 1018.3R
S GREEN BAY BUOY 1400   62 72   30/ 10/ 14 1018.6
N MID LAKE BUOY  1350   62 65  360/ 17/ 21 1018.2R   3/ 5
NORTHPORT PIER   1330   62     350/ 11/ 14 1018.3S
KEWAUNEE LAKESHO 1354   65      10/  7/ 11 1017.5R
SHEBOYGAN LAKESH 1400   64      20/ 20/ 22 1017.2R
PORT WASHINGTON  1330   67      40/ 14/ 20 1018.3R
ATWATER BUOY     1309   66 68   40/ 19/ 23 1016.9R
MILWAUKEE LAKESH 1400   65      30/ 20/ 22   N/A
S MID LAKE BUOY  1350   66 70   20/ 17/ 21 1015.9R   4/ 7
KENOSHA   LAKESH 1400   66      20/ 21/ 25 1016.6
$$

TC  - TEMPERATURE IN CELSIUS
VSB - VISIBILITY IN STATUTE MILES
WCI - WIND CHILL INDEX
HX  - HEAT INDEX





USA.gov is the U.S. government's official web portal to all federal, state and local government web resources and services.